Find Starlink 32250

NORAD ID: 60425 Int'l Des: 2024-144 Owner: SPXS Country: US Constellation: starlink operational
LEOCIRCULAR

当前视图

正在加载3D地球...

About Starlink 32250

Starlink 32250 (NORAD 60425) is a starlink constellation satellite (v2 mini) launched Aug 12, 2024 by SPXS of US. It operates in LEO, CIRCULAR orbit with a mass of 730.00 kg.

关于 Starlink 32250

正在加载描述...

即将过境

Passes for default location (London). Set your location on the main map for personalized predictions.

高度历史

Loading altitude history...

两行轨道根数

1 60425U 24144A 26168.12566093 .00000282 00000-0 19498-4 0 9994
2 60425 53.1621 115.2411 0001332 86.9891 273.1264 15.34390232103632
Epoch: Jun 17, 2026 • Age: 24 hours

当前状态

高度 476.3 km
速度 7.63 km/s
星下点 -39.16°S, 9.38°E
发射日期 Aug 12, 2024
运行时间 1.8 years
类型 internet

技术详情

分类 Payload
质量 730.00 kg
干质量 700.00 kg
总质量 730.00 kg
长度 0.30 m
直径 4.10 m
跨度 29.00 m
形状 Box + pan
制造商 SPXS
平台类型 Starlink V2M
阶段状态 In Orbit
所有者/国家 SPXS/US

Most Searched